CCA8538 ZPPP-ZSPD

Flight info

Callsign CCA8538
Flight time N/A
Altitude 39100
Route K0891S1190 NOD9Z NODIB W137 LPS A581 WHA R343 SASAN SAS91A
Aircraft B77W/H-SDE1E2E3FGHIJ2J3J4J5M1RWXY/LB1D1

Departure

Time 2026-04-28 03:10
Airport Kunming Changshui International Airport (ZPPP)

Arrival

Time N/A
Airport Shanghai Pudong International Airport (ZSPD)
Time Latitude Longitude Altitude Speed Heading
2026-04-28 02:53 25.10369 102.93499 6900 ft 0 kts 257°
2026-04-28 02:57 25.10371 102.93509 6900 ft 4 kts 256°
2026-04-28 02:57 25.10378 102.93538 6900 ft 4 kts 252°
2026-04-28 02:57 25.10387 102.93566 6900 ft 4 kts 247°
2026-04-28 02:58 25.10399 102.93593 6900 ft 4 kts 233°
2026-04-28 02:58 25.10416 102.93610 6900 ft 4 kts 178°
2026-04-28 02:58 25.10423 102.93610 6900 ft 0 kts 128°
2026-04-28 03:00 25.10422 102.93610 6900 ft 0 kts 128°
2026-04-28 03:01 25.10415 102.93620 6900 ft 3 kts 128°
2026-04-28 03:01 25.10394 102.93650 6900 ft 7 kts 127°
2026-04-28 03:01 25.10359 102.93699 6899 ft 10 kts 128°
2026-04-28 03:01 25.10312 102.93765 6899 ft 12 kts 128°
2026-04-28 03:02 25.10284 102.93847 6899 ft 12 kts 64°
2026-04-28 03:02 25.10354 102.93909 6899 ft 13 kts 38°
2026-04-28 03:02 25.10426 102.93972 6899 ft 14 kts 38°
2026-04-28 03:02 25.10504 102.94041 6898 ft 15 kts 38°
2026-04-28 03:03 25.10590 102.94115 6898 ft 16 kts 38°
2026-04-28 03:03 25.10682 102.94196 6897 ft 18 kts 38°
2026-04-28 03:03 25.10783 102.94283 6897 ft 19 kts 38°
2026-04-28 03:03 25.10887 102.94374 6897 ft 19 kts 38°
2026-04-28 03:04 25.10991 102.94464 6896 ft 19 kts 38°
2026-04-28 03:04 25.11094 102.94555 6896 ft 19 kts 38°
2026-04-28 03:04 25.11197 102.94644 6896 ft 19 kts 38°
2026-04-28 03:04 25.11301 102.94734 6895 ft 19 kts 38°
2026-04-28 03:05 25.11405 102.94825 6895 ft 19 kts 38°
2026-04-28 03:05 25.11509 102.94915 6895 ft 19 kts 38°
2026-04-28 03:05 25.11613 102.95005 6894 ft 19 kts 38°
2026-04-28 03:05 25.11717 102.95096 6893 ft 19 kts 38°
2026-04-28 03:06 25.11821 102.95187 6893 ft 19 kts 38°
2026-04-28 03:06 25.11925 102.95277 6893 ft 19 kts 38°
2026-04-28 03:06 25.12028 102.95368 6892 ft 19 kts 38°
2026-04-28 03:06 25.12132 102.95458 6893 ft 19 kts 38°
2026-04-28 03:07 25.12222 102.95536 6892 ft 13 kts 38°
2026-04-28 03:07 25.12286 102.95603 6892 ft 13 kts 69°
2026-04-28 03:07 25.12248 102.95685 6892 ft 10 kts 128°
2026-04-28 03:07 25.12232 102.95706 6892 ft 0 kts 128°
2026-04-28 03:08 25.12227 102.95715 6892 ft 3 kts 129°
2026-04-28 03:08 25.12205 102.95744 6893 ft 7 kts 129°
2026-04-28 03:08 25.12168 102.95793 6895 ft 10 kts 129°
2026-04-28 03:09 25.12108 102.95811 6895 ft 11 kts 219°
2026-04-28 03:09 25.12029 102.95735 6894 ft 25 kts 219°
2026-04-28 03:09 25.11761 102.95500 6892 ft 82 kts 218°
2026-04-28 03:09 25.11142 102.94960 6897 ft 143 kts 218°
2026-04-28 03:10 25.10230 102.94163 6934 ft 187 kts 218°
2026-04-28 03:10 25.09200 102.93266 7334 ft 197 kts 217°
2026-04-28 03:10 25.08038 102.92334 7924 ft 209 kts 218°
2026-04-28 03:10 25.06890 102.91362 8498 ft 212 kts 223°
2026-04-28 03:11 25.05729 102.90332 9119 ft 222 kts 223°
2026-04-28 03:11 25.04464 102.89193 9429 ft 249 kts 223°
2026-04-28 03:11 25.03043 102.87929 9801 ft 270 kts 221°
2026-04-28 03:11 25.01539 102.86611 10426 ft 284 kts 221°
2026-04-28 03:12 24.99909 102.85190 10700 ft 313 kts 221°
2026-04-28 03:12 24.98116 102.83637 10898 ft 340 kts 219°
2026-04-28 03:12 24.95936 102.82433 11124 ft 367 kts 196°
2026-04-28 03:12 24.93328 102.82295 11837 ft 385 kts 173°
2026-04-28 03:13 24.90785 102.83336 12769 ft 400 kts 149°
2026-04-28 03:13 24.88766 102.85488 13825 ft 411 kts 126°
2026-04-28 03:13 24.87320 102.88239 14754 ft 415 kts 119°
2026-04-28 03:13 24.85942 102.91004 15632 ft 421 kts 121°
2026-04-28 03:14 24.84429 102.93787 16481 ft 427 kts 123°
2026-04-28 03:14 24.82944 102.96606 17289 ft 428 kts 115°
2026-04-28 03:14 24.82260 102.99815 18088 ft 437 kts 92°
2026-04-28 03:14 24.82618 103.03146 18911 ft 443 kts 74°
2026-04-28 03:15 24.83901 103.06248 19624 ft 447 kts 56°
2026-04-28 03:15 24.85930 103.08842 20284 ft 451 kts 37°
2026-04-28 03:15 24.88461 103.10830 20803 ft 454 kts 32°
2026-04-28 03:15 24.91097 103.12782 21354 ft 456 kts 31°
2026-04-28 03:16 24.93731 103.14731 22025 ft 458 kts 31°
2026-04-28 03:16 24.96383 103.16709 22541 ft 463 kts 32°
2026-04-28 03:16 24.99055 103.18723 23011 ft 468 kts 32°
2026-04-28 03:16 25.01743 103.20768 23519 ft 472 kts 32°
2026-04-28 03:17 25.04451 103.22842 23977 ft 475 kts 32°
2026-04-28 03:17 25.09898 103.27036 24792 ft 482 kts 33°
2026-04-28 03:17 25.12660 103.29165 25190 ft 485 kts 33°
2026-04-28 03:18 25.15439 103.31308 25593 ft 488 kts 33°
2026-04-28 03:18 25.18196 103.33434 25990 ft 491 kts 33°
2026-04-28 03:18 25.21012 103.35611 26342 ft 495 kts 33°
2026-04-28 03:18 25.23844 103.37795 26720 ft 498 kts 33°
2026-04-28 03:19 25.26701 103.39998 27106 ft 501 kts 33°
2026-04-28 03:19 25.29562 103.42206 27456 ft 504 kts 33°
2026-04-28 03:19 25.32452 103.44441 27814 ft 507 kts 33°
2026-04-28 03:19 25.35354 103.46686 28174 ft 511 kts 33°
2026-04-28 03:20 25.38277 103.48949 28450 ft 514 kts 33°
2026-04-28 03:20 25.41217 103.51226 28661 ft 519 kts 33°
2026-04-28 03:20 25.44193 103.53533 28870 ft 524 kts 33°
2026-04-28 03:20 25.47184 103.55854 29169 ft 526 kts 33°
2026-04-28 03:21 25.50183 103.58181 29488 ft 528 kts 33°
2026-04-28 03:21 25.53107 103.60644 29771 ft 531 kts 41°
2026-04-28 03:21 25.55497 103.63781 29963 ft 534 kts 56°
2026-04-28 03:21 25.57459 103.67284 30144 ft 536 kts 59°
2026-04-28 03:22 25.59371 103.70830 30448 ft 536 kts 59°
2026-04-28 03:22 25.61276 103.74323 30825 ft 534 kts 58°
2026-04-28 03:22 25.63233 103.77821 31210 ft 532 kts 58°
2026-04-28 03:22 25.65214 103.81282 31533 ft 532 kts 57°
2026-04-28 03:23 25.67213 103.84730 31823 ft 532 kts 57°
2026-04-28 03:23 25.69226 103.88186 32028 ft 535 kts 58°
2026-04-28 03:23 25.71246 103.91659 32213 ft 537 kts 58°
2026-04-28 03:23 25.73266 103.95146 32502 ft 537 kts 58°
2026-04-28 03:24 25.75277 103.98627 32857 ft 535 kts 58°
2026-04-28 03:24 25.77286 104.02110 33185 ft 535 kts 58°
2026-04-28 03:24 25.79294 104.05593 33471 ft 535 kts 58°
2026-04-28 03:24 25.81305 104.09061 33755 ft 535 kts 58°
2026-04-28 03:25 25.83341 104.12524 34038 ft 535 kts 58°
2026-04-28 03:25 25.85380 104.15975 34306 ft 535 kts 58°
2026-04-28 03:25 25.87419 104.19425 34579 ft 534 kts 58°
2026-04-28 03:25 25.89454 104.22878 34808 ft 534 kts 58°
2026-04-28 03:26 25.91445 104.26266 35103 ft 533 kts 58°
2026-04-28 03:26 25.93468 104.29717 35374 ft 532 kts 58°
2026-04-28 03:26 25.95459 104.33117 35641 ft 531 kts 58°
2026-04-28 03:26 25.97472 104.36557 35889 ft 531 kts 58°
2026-04-28 03:27 25.99486 104.39999 36145 ft 530 kts 58°
2026-04-28 03:27 26.01628 104.43335 36392 ft 531 kts 52°
2026-04-28 03:27 26.04039 104.46455 36629 ft 531 kts 47°
2026-04-28 03:27 26.06667 104.49331 36995 ft 529 kts 40°
2026-04-28 03:28 26.09475 104.51972 37248 ft 528 kts 39°
2026-04-28 03:28 26.12323 104.54574 37498 ft 528 kts 38°
2026-04-28 03:28 26.15174 104.57161 37718 ft 529 kts 38°
2026-04-28 03:28 26.18024 104.59759 37944 ft 529 kts 38°
2026-04-28 03:29 26.20828 104.62336 38174 ft 528 kts 39°
2026-04-28 03:29 26.23685 104.64982 38390 ft 528 kts 39°
2026-04-28 03:29 26.26469 104.67574 38666 ft 528 kts 39°
2026-04-28 03:29 26.29282 104.70200 38908 ft 526 kts 39°
2026-04-28 03:30 26.32089 104.72823 39043 ft 528 kts 39°
2026-04-28 03:30 26.34907 104.75456 39077 ft 528 kts 39°
2026-04-28 03:30 26.40522 104.80705 39135 ft 525 kts 39°
2026-04-28 03:31 26.46135 104.85956 39144 ft 528 kts 39°
2026-04-28 03:31 26.51782 104.91245 39161 ft 530 kts 39°
2026-04-28 03:32 26.57452 104.96565 39129 ft 532 kts 39°
2026-04-28 03:32 26.62810 105.02261 39131 ft 532 kts 51°
2026-04-28 03:33 26.66314 105.07897 39150 ft 530 kts 62°
2026-04-28 03:33 26.69428 105.15343 39137 ft 528 kts 69°
2026-04-28 03:34 26.72810 105.24099 39135 ft 528 kts 68°
2026-04-28 03:34 26.75306 105.30391 39132 ft 528 kts 67°
2026-04-28 03:35 26.78356 105.37801 39138 ft 527 kts 66°
2026-04-28 03:35 26.81404 105.45263 39143 ft 527 kts 67°
2026-04-28 03:36 26.84345 105.52768 39128 ft 526 kts 68°
2026-04-28 03:36 26.87263 105.60275 39145 ft 526 kts 68°
2026-04-28 03:37 26.90259 105.67748 39143 ft 526 kts 67°
2026-04-28 03:37 26.93282 105.75226 39137 ft 526 kts 67°
2026-04-28 03:38 26.96234 105.82741 39139 ft 526 kts 68°
2026-04-28 03:38 26.99172 105.90273 39136 ft 527 kts 68°
2026-04-28 03:39 27.02132 105.97739 39124 ft 528 kts 68°
2026-04-28 03:39 27.05164 106.05242 39126 ft 529 kts 65°
2026-04-28 03:40 27.08511 106.12589 39131 ft 529 kts 63°
2026-04-28 03:40 27.11912 106.19918 39124 ft 530 kts 64°
2026-04-28 03:41 27.15277 106.27293 39139 ft 530 kts 64°